| time (UTC) | temp C | wind direction | speed KPH | gust KPH | rain 1hr cm | rain 24hr cm | rain mn cm | humidity % | barometer mb |
| 20260505022244 | 18 | 117 | 0.0 | 0.0 | 0.00 | 0.00 | 0.00 | 34 | 1006.0 |
| 20260505021052 | 18 | 69 | 0.0 | 3.2 | 0.00 | 0.00 | 0.00 | 34 | 1006.0 |
| 20260505020552 | 19 | 0 | 0.0 | 0.0 | 0.00 | 0.00 | 0.00 | 33 | 1005.9 |
| 20260505015056 | 19 | 0 | 0.0 | 0.0 | 0.00 | 0.00 | 0.00 | 32 | 1005.9 |
| 20260505014158 | 20 | 0 | 0.0 | 0.0 | 0.00 | 0.00 | 0.00 | 30 | 1006.0 |
| 20260505012050 | 20 | 355 | 0.0 | 0.0 | 0.00 | 0.00 | 0.00 | 31 | 1006.0 |
| 20260505010327 | 20 | 355 | 0.0 | 0.0 | 0.00 | 0.00 | 0.00 | 30 | 1006.2 |
| 20260505005327 | 20 | 351 | 0.0 | 0.0 | 0.00 | 0.00 | 0.00 | 31 | 1006.3 |
| 20260505004326 | 20 | 351 | 0.0 | 0.0 | 0.00 | 0.00 | 0.00 | 31 | 1006.6 |
| 20260505003827 | 20 | 351 | 0.0 | 0.0 | 0.00 | 0.00 | 0.00 | 30 | 1006.5 |
| 20260505001336 | 20 | 351 | 0.0 | 8.0 | 0.00 | 0.00 | 0.00 | 29 | 1006.2 |
| 20260505000338 | 21 | 0 | 0.0 | 24.1 | 0.00 | 0.00 | 0.00 | 29 | 1006.0 |
| 20260504235336 | 21 | 343 | 0.0 | 8.0 | 0.00 | 0.00 | 0.00 | 26 | 1005.7 |
| 20260504234335 | 21 | 355 | 0.0 | 4.8 | 0.00 | 0.00 | 0.00 | 26 | 1005.6 |
| 20260504233334 | 21 | 344 | 0.0 | 0.0 | 0.00 | 0.00 | 0.00 | 24 | 1005.5 |
| 20260504231448 | 22 | 344 | 0.0 | 0.0 | 0.00 | 0.00 | 0.00 | 23 | 1005.5 |
| 20260504225942 | 22 | 350 | 0.0 | 0.0 | 0.00 | 0.00 | 0.00 | 23 | 1005.6 |
| 20260504224942 | 22 | 350 | 0.0 | 0.0 | 0.00 | 0.00 | 0.00 | 23 | 1005.7 |
| 20260504222900 | 21 | 350 | 0.0 | 4.8 | 0.00 | 0.00 | 0.00 | 25 | 1005.9 |
| 20260504221858 | 21 | 72 | 0.0 | 0.0 | 0.00 | 0.00 | 0.00 | 25 | 1006.0 |
| 20260504220854 | 21 | 72 | 0.0 | 0.0 | 0.00 | 0.00 | 0.00 | 22 | 1006.0 |
| 20260504215349 | 22 | 122 | 0.0 | 0.0 | 0.00 | 0.00 | 0.00 | 23 | 1006.5 |
| 20260504213849 | 22 | 122 | 0.0 | 0.0 | 0.00 | 0.00 | 0.00 | 25 | 1006.7 |
| 20260504212850 | 22 | 122 | 0.0 | 0.0 | 0.00 | 0.00 | 0.00 | 23 | 1006.9 |
| 20260504211415 | 23 | 123 | 0.0 | 0.0 | 0.00 | 0.00 | 0.00 | 22 | 1007.2 |
| 20260504205914 | 23 | 122 | 0.0 | 1.6 | 0.00 | 0.00 | 0.00 | 22 | 1007.3 |
| 20260504205418 | 23 | 121 | 0.0 | 0.0 | 0.00 | 0.00 | 0.00 | 22 | 1007.3 |
| 20260504202904 | 23 | 127 | 0.0 | 8.0 | 0.00 | 0.00 | 0.00 | 21 | 1007.5 |
| 20260504201903 | 23 | 127 | 0.0 | 0.0 | 0.00 | 0.00 | 0.00 | 23 | 1007.7 |
| 20260504200624 | 23 | 128 | 0.0 | 0.0 | 0.00 | 0.00 | 0.00 | 20 | 1008.0 |
| 20260504200125 | 23 | 128 | 0.0 | 0.0 | 0.00 | 0.00 | 0.00 | 24 | 1008.0 |
| 20260504195127 | 23 | 128 | 0.0 | 0.0 | 0.00 | 0.00 | 0.00 | 26 | 1008.1 |
| 20260504193624 | 23 | 128 | 0.0 | 0.0 | 0.00 | 0.00 | 0.00 | 25 | 1008.2 |
| 20260504193126 | 23 | 128 | 0.0 | 0.0 | 0.00 | 0.00 | 0.00 | 23 | 1008.3 |
| 20260504191625 | 23 | 128 | 0.0 | 0.0 | 0.00 | 0.00 | 0.00 | 31 | 1008.6 |
| 20260504190444 | 22 | 128 | 0.0 | 0.0 | 0.00 | 0.00 | 0.00 | 26 | 1008.7 |
| 20260504185442 | 22 | 128 | 0.0 | 0.0 | 0.00 | 0.00 | 0.00 | 26 | 1008.9 |
| 20260504184442 | 22 | 128 | 0.0 | 0.0 | 0.00 | 0.00 | 0.00 | 25 | 1008.9 |
| 20260504183443 | 22 | 128 | 0.0 | 0.0 | 0.00 | 0.00 | 0.00 | 26 | 1009.0 |
| 20260504182202 | 22 | 104 | 0.0 | 0.0 | 0.00 | 0.00 | 0.00 | 26 | 1009.3 |
| 20260504181204 | 21 | 104 | 0.0 | 0.0 | 0.00 | 0.00 | 0.00 | 31 | 1009.3 |
| 20260504175716 | 21 | 104 | 0.0 | 9.7 | 0.00 | 0.00 | 0.00 | 30 | 1009.4 |
| 20260504174717 | 21 | 104 | 0.0 | 0.0 | 0.00 | 0.00 | 0.00 | 29 | 1009.5 |
| 20260504173717 | 20 | 104 | 0.0 | 1.6 | 0.00 | 0.00 | 0.00 | 30 | 1009.5 |
| 20260504172716 | 20 | 104 | 0.0 | 0.0 | 0.00 | 0.00 | 0.00 | 30 | 1009.5 |
| 20260504171717 | 20 | 104 | 0.0 | 0.0 | 0.00 | 0.00 | 0.00 | 31 | 1009.6 |
| 20260504150621 | 13 | 104 | 0.0 | 0.0 | 0.00 | 0.00 | 0.00 | 47 | 1010.0 |
| 20260504140617 | 8 | 104 | 0.0 | 0.0 | 0.00 | 0.00 | 0.00 | 64 | 1010.0 |
| 20260504130429 | 3 | 104 | 0.0 | 0.0 | 0.00 | 0.00 | 0.00 | 73 | 1009.6 |
| 20260504100150 | 6 | 104 | 0.0 | 0.0 | 0.00 | 0.00 | 0.00 | 62 | 1009.4 |
| 20260504081010 | 8 | 104 | 0.0 | 0.0 | 0.00 | 0.00 | 0.00 | 53 | 1009.4 |
| 20260504045958 | 13 | 104 | 0.0 | 0.0 | 0.00 | 0.00 | 0.00 | 43 | 1010.0 |
| 20260504044957 | 13 | 104 | 0.0 | 0.0 | 0.00 | 0.00 | 0.00 | 43 | 1010.1 |
| 20260504043958 | 13 | 104 | 0.0 | 0.0 | 0.00 | 0.00 | 0.00 | 43 | 1010.0 |
| 20260504042957 | 13 | 104 | 0.0 | 0.0 | 0.00 | 0.00 | 0.00 | 41 | 1010.0 |
| 20260504041956 | 13 | 104 | 0.0 | 0.0 | 0.00 | 0.00 | 0.00 | 42 | 1009.8 |
| 20260504040644 | 14 | 104 | 0.0 | 0.0 | 0.00 | 0.00 | 0.00 | 41 | 1009.8 |
| 20260504040146 | 14 | 104 | 0.0 | 0.0 | 0.00 | 0.00 | 0.00 | 40 | 1009.8 |
| 20260504033625 | 15 | 104 | 0.0 | 0.0 | 0.00 | 0.00 | 0.00 | 36 | 1009.8 |
| 20260504032626 | 15 | 104 | 0.0 | 0.0 | 0.00 | 0.00 | 0.00 | 35 | 1009.7 |
| 20260504031613 | 16 | 104 | 0.0 | 0.0 | 0.00 | 0.00 | 0.00 | 34 | 1009.7 |
| 20260504030018 | 16 | 104 | 0.0 | 0.0 | 0.00 | 0.00 | 0.00 | 34 | 1009.6 |
| 20260504025519 | 17 | 104 | 0.0 | 0.0 | 0.00 | 0.00 | 0.00 | 32 | 1009.5 |
| 20260504024018 | 17 | 104 | 0.0 | 0.0 | 0.00 | 0.00 | 0.00 | 32 | 1009.5 |